Location: Cañada de la Miga
(34.7595°N, 106.2317°W)
Time: 19:48:14
(UTC+00:00)

Vanguard 1 Rocket - Visible Passes

Search period start: 06 December 2021 00:00
Search period end: 16 December 2021 00:00
Orbit: 650 x 4226 km, 34.3° (Epoch: 04 December)

Date Brightness Start Highest point End Pass type
(mag) Time Alt. Az. Time Alt. Az. Time Alt. Az.
06 Dec 10.6 08:27:56 25° E 08:27:56 25° E 08:34:08 10° ENE visible
06 Dec 9.2 10:45:13 74° W 10:47:08 89° S 11:09:10 10° E visible
06 Dec 10.4 13:02:29 12° W 13:17:57 76° SSW 13:43:59 10° ESE visible
07 Dec 9.6 09:37:58 57° E 09:37:58 57° E 09:52:34 10° E visible
07 Dec 9.7 11:55:14 35° W 12:03:34 84° SSW 12:28:07 10° ESE visible
08 Dec 10.6 08:30:43 25° E 08:30:43 25° E 08:36:35 10° E visible
08 Dec 9.1 10:47:59 74° W 10:49:52 88° S 11:11:34 10° E visible
08 Dec 10.4 13:05:16 12° W 13:20:20 69° SSW 13:45:50 10° SE visible
09 Dec 9.6 09:40:45 56° E 09:40:45 56° E 09:55:00 10° E visible
09 Dec 9.6 11:58:01 34° W 12:06:09 79° SSW 12:30:16 10° ESE visible
10 Dec 10.6 08:33:29 24° E 08:33:29 24° E 08:39:04 10° E visible
10 Dec 9.1 10:50:46 73° W 10:52:34 86° S 11:13:54 10° ESE visible
10 Dec 10.4 13:08:02 11° W 13:22:41 61° SSW 13:47:26 10° SE visible
11 Dec 9.6 09:43:31 56° E 09:43:31 56° E 09:57:26 10° E visible
11 Dec 9.6 12:00:48 34° W 12:08:41 72° SSW 12:32:13 10° ESE visible
12 Dec 10.6 08:36:17 24° E 08:36:17 24° E 08:41:33 10° E visible
12 Dec 9.0 10:53:34 72° WSW 10:55:16 82° SSW 11:16:09 10° ESE visible
12 Dec 10.4 13:10:51 11° W 13:25:03 53° SSW 13:48:43 10° SE visible
13 Dec 9.6 09:46:20 55° E 09:46:20 55° E 09:59:52 10° E visible
13 Dec 9.6 12:03:37 33° W 12:11:14 64° SSW 12:33:56 10° SE visible
14 Dec 10.6 08:39:07 23° E 08:39:07 23° E 08:44:05 10° E visible
14 Dec 9.0 10:56:24 70° WSW 10:57:57 75° SSW 11:18:15 10° ESE visible
14 Dec 10.4 13:13:44 10° W 13:27:29 44° SSW 13:49:40 10° SSE visible
15 Dec 9.6 09:49:12 53° ESE 09:49:12 53° ESE 10:02:15 10° ESE visible
15 Dec 9.7 12:06:29 31° W 12:13:46 56° SSW 12:35:24 10° SE visible
